Powrót do katalogu

FENGYUN 1C DEB

AktywnySSO
NORAD 31412·DEBRIS·🇨🇳 China

Wystrzelony May 10, 1999 z Taiyuan Satellite Launch Center

Loading…

Następne Przeloty (najbliższe 24 godziny)

TLE

ŚwieżeSource: Space-Track

Epoka: Sep 11, 2026, 06:37 UTC

1 31412U 99025BSY 26254.27578025  .00001591  00000-0  87932-3 0  9999
2 31412  98.5569 190.1692 0080760 280.1243  79.0827 14.11150026648343

Śledź FENGYUN 1C DEB w czasie rzeczywistym z AllMySat

Download on the App Store